Theta_e
345 347 349 350 349 349 347 344 345 346 345 344 345 335 334 334 334 334 334 333 333 335 336 336 335 335 334 335 338 341 340 340 340 339 338 336 333 335 338 337 331 326 324
342 346 347 348 346 344 343 344 345 344 343 343 340 335 336 334 333 334 333 332 335 336 335 333 335 335 336 337 338 339 340 340 342 343 340 336 331 331 338 336 327 327 336
340 341 342 342 342 342 345 346 345 344 341 341 340 337 334 335 335 334 335 336 335 334 331 335 336 335 334 334 337 337 339 339 340 343 343 335 331 331 332 326 324 327 334
340 340 341 341 342 345 346 346 345 342 337 336 334 334 333 332 333 334 335 336 334 333 334 336 337 336 335 335 335 336 339 340 340 344 344 339 332 329 328 325 324 329 326
341 341 343 343 344 345 341 339 337 337 336 333 331 330 332 333 333 334 335 335 334 335 335 334 335 336 336 337 337 337 339 340 340 342 344 341 336 329 325 330 322 328 324
342 343 343 344 344 343 337 341 341 341 340 339 338 337 336 337 337 336 336 336 335 333 333 334 335 336 336 337 337 339 341 339 343 344 342 340 340 330 330 337 325 331 335
343 343 344 344 343 342 340 339 341 339 339 341 340 339 338 338 337 335 333 332 331 331 333 335 335 336 337 336 337 340 343 340 342 345 345 342 337 332 330 337 328 325 323
343 343 344 343 343 342 341 342 342 341 339 338 340 339 338 338 337 332 331 331 332 334 335 335 335 335 335 334 333 336 337 340 339 343 345 340 332 332 327 324 328 324 323
343 342 344 343 342 340 339 341 342 341 339 337 336 336 337 336 336 335 336 337 336 338 337 335 334 334 333 334 340 340 337 341 342 346 345 340 332 331 327 325 323 325 328
341 340 342 343 342 342 341 338 339 340 338 336 336 337 338 339 340 339 343 342 340 339 335 335 340 336 332 336 341 342 340 345 346 345 346 344 340 330 333 329 324 324 327
343 340 342 341 340 341 342 341 340 339 338 336 338 339 340 341 344 335 342 335 342 343 343 338 343 343 343 340 340 341 345 344 344 344 346 344 342 336 328 333 327 324 323
349 346 344 344 342 341 340 341 340 339 337 337 338 340 342 343 347 346 344 346 344 345 342 342 342 342 342 344 340 341 344 346 344 344 344 344 344 339 333 327 330 325 324
349 348 348 348 346 344 343 342 342 340 339 341 339 343 346 346 347 345 344 345 345 344 343 344 344 344 343 343 343 344 343 341 343 343 345 346 344 344 339 331 328 327 326
348 348 348 349 347 349 347 346 347 348 346 346 347 348 346 343 343 345 345 342 342 344 344 344 344 345 341 341 340 343 344 343 341 343 343 346 343 343 343 339 329 331 324
349 349 351 351 347 351 350 350 349 349 349 349 348 348 347 348 346 347 344 344 342 342 342 343 342 342 342 342 342 341 343 343 341 340 342 342 342 343 343 342 339 329 330
349 351 351 351 348 349 351 349 351 349 348 351 351 348 347 349 348 346 346 344 343 343 340 341 342 341 339 338 339 340 343 344 343 341 339 341 341 343 343 344 341 339 332
349 353 350 351 350 348 349 352 350 353 352 350 350 349 347 348 344 345 344 343 343 344 343 341 341 340 339 339 338 338 339 341 344 343 343 343 342 342 345 345 344 341 339
346 349 349 349 347 348 347 347 346 346 345 346 343 346 347 345 346 347 345 344 343 342 342 343 342 339 336 335 333 332 330 331 337 342 342 343 342 342 342 343 344 343 341
347 347 348 347 346 347 347 348 348 347 346 346 345 345 345 344 345 344 345 345 344 342 342 339 338 338 336 333 330 329 331 330 330 334 339 341 343 344 343 342 340 342 344
346 346 348 348 347 348 352 350 349 346 346 344 344 344 345 345 347 346 349 344 341 339 339 339 337 336 336 334 336 330 328 328 330 332 331 337 341 343 344 344 343 341 342
346 347 348 348 347 349 349 347 347 344 344 345 345 346 347 348 348 343 340 339 335 333 333 335 333 333 333 338 333 332 331 330 332 336 337 340 337 338 342 342 341 342 342
346 348 348 348 345 344 344 341 342 339 334 341 342 342 343 342 342 339 334 329 332 336 335 333 337 335 335 336 335 336 336 334 336 336 335 335 335 341 342 341 341 340 341
349 346 346 346 344 344 338 338 338 340 336 337 339 341 343 340 336 331 327 328 332 332 334 335 334 336 337 336 336 337 337 337 334 333 333 334 336 340 339 340 339 339 339
349 346 347 344 334 332 335 334 336 341 339 333 340 342 339 337 327 330 335 332 333 334 332 328 334 335 336 334 334 334 334 335 335 335 332 331 330 332 335 336 336 337 338
351 352 349 335 335 334 331 321 332 340 330 333 336 336 336 330 332 333 334 336 336 332 326 329 329 330 330 331 333 332 332 331 330 330 328 324 323 324 325 327 328 332 335
352 352 351 334 334 335 323 326 335 333 325 329 333 333 333 329 326 331 334 335 334 326 323 326 329 329 332 332 329 327 327 327 325 326 328 322 321 320 319 324 325 327 328
Wind_Speed
17 21 24 25 25 26 24 23 24 23 22 23 25 29 29 24 22 19 17 17 14 12 13 13 12 11 10 8 10 8 7 6 5 7 6 7 7 7 7 6 6 4 4
20 21 23 26 27 25 25 24 24 24 24 25 29 30 22 20 21 19 18 17 13 11 12 12 12 11 10 10 11 10 6 4 5 7 7 8 5 6 6 6 4 5 8
22 23 25 25 26 26 25 25 25 24 26 27 28 24 20 20 21 20 18 15 12 10 10 11 10 10 10 10 9 9 8 5 5 5 6 7 5 6 5 4 5 7 10
24 24 24 24 24 24 24 25 25 26 28 27 26 24 20 18 18 17 14 12 11 9 9 8 8 8 9 10 9 9 8 6 4 1 4 4 6 5 4 5 5 8 9
25 25 24 23 23 24 25 26 26 25 23 21 20 18 15 15 15 14 11 11 10 8 7 6 5 5 7 9 8 7 6 8 5 5 4 5 4 4 5 7 7 10 11
25 24 24 23 23 25 26 26 25 23 22 20 19 18 16 15 14 12 10 9 7 6 5 5 4 5 7 8 8 6 5 7 7 6 3 5 4 3 5 7 9 10 9
25 24 23 23 24 25 24 23 21 20 20 20 19 18 15 13 11 9 7 5 3 4 5 5 5 6 6 6 6 5 4 5 3 3 2 5 3 3 5 7 7 9 10
24 23 22 21 23 23 23 21 19 18 17 17 15 13 12 10 9 6 4 2 2 4 4 5 5 5 4 4 4 4 3 4 1 2 4 3 3 4 4 6 7 8 10
22 21 21 21 21 21 20 18 17 16 15 13 11 10 9 8 7 4 1 1 1 1 2 4 4 3 1 1 2 4 3 2 3 3 2 5 4 4 5 5 6 8 9
22 21 21 20 20 20 19 17 15 14 12 10 9 9 8 6 3 2 1 1 2 3 2 2 2 3 1 0 1 4 5 3 4 1 2 5 4 4 5 6 5 8 9
19 18 17 18 19 18 18 16 14 12 11 9 9 8 6 5 4 3 3 3 1 2 2 1 2 2 2 1 1 1 3 2 2 1 2 2 4 5 5 6 7 8 9
20 18 17 16 16 16 15 14 12 11 10 9 9 7 5 3 3 0 3 7 2 1 2 1 5 5 6 3 2 3 3 4 4 2 3 3 3 7 4 6 9 9 10
19 17 16 15 15 14 15 13 12 11 9 8 8 6 6 3 3 5 5 3 3 4 3 5 8 10 8 8 8 7 5 6 8 7 6 6 6 6 5 6 10 11 11
20 17 15 15 14 14 12 12 11 10 10 9 8 5 5 5 6 5 5 7 7 6 5 6 7 8 11 10 12 10 9 9 10 14 8 7 7 8 8 7 8 12 12
19 20 16 14 15 13 14 12 10 12 11 8 6 7 8 8 7 9 8 9 9 11 11 12 9 12 15 15 15 11 13 11 11 14 12 12 10 10 10 9 9 10 13
18 19 15 13 15 12 12 11 11 10 12 10 10 8 11 9 11 14 12 11 8 9 12 15 15 16 16 17 15 12 12 15 12 12 13 14 15 13 13 12 10 12 13
20 19 20 17 15 13 11 12 12 13 13 12 11 12 12 12 14 12 12 9 11 10 13 14 14 16 16 15 16 13 11 12 14 11 13 16 18 16 15 15 14 13 16
21 21 19 16 14 15 15 17 17 16 15 15 15 14 12 15 14 13 12 12 13 13 13 12 13 14 15 16 17 16 17 15 15 17 17 15 18 18 18 19 18 16 16
19 19 18 16 14 14 12 12 13 17 17 18 18 14 14 13 14 14 14 15 14 12 12 11 12 14 14 14 17 18 15 14 14 16 18 17 19 21 20 20 22 22 20
19 18 18 16 13 11 10 10 9 11 11 13 14 12 13 11 10 13 15 13 10 9 9 10 13 14 15 18 19 17 15 14 13 12 13 16 19 20 22 23 21 23 24
21 19 18 19 15 14 11 9 8 7 7 9 7 8 11 12 10 12 12 8 8 9 9 11 14 15 15 17 20 18 15 10 8 5 5 7 12 20 25 25 26 25 26
23 20 20 19 16 12 9 9 8 6 6 7 6 8 8 7 8 8 12 14 10 9 10 11 11 14 16 14 15 16 11 10 3 5 10 13 14 8 12 20 24 24 25
26 22 21 17 17 13 11 9 9 8 8 8 8 9 7 7 9 12 7 6 6 6 7 11 12 12 13 11 10 8 5 5 22 13 12 9 11 10 9 12 15 21 25
28 23 21 19 17 16 13 12 11 10 11 10 7 8 8 7 10 3 4 1 1 7 11 9 9 8 8 9 8 8 8 10 10 12 18 17 14 13 14 16 17 20 19
31 27 23 23 20 18 16 13 11 13 12 13 10 10 10 8 3 4 5 3 7 13 10 7 7 5 6 6 7 9 8 8 7 11 18 22 19 17 17 17 18 20 22
33 29 27 27 24 21 17 12 14 13 14 14 14 13 11 13 8 6 7 7 12 12 6 5 4 6 5 5 7 8 7 8 10 10 16 20 23 22 20 17 16 18 20
Wind_Direction
121 121 124 125 129 135 133 133 131 132 135 132 131 126 122 121 127 133 131 127 120 106 101 102 96 93 88 80 69 62 69 91 108 119 106 111 106 108 114 98 71 54 125
122 121 124 126 128 132 132 129 130 133 131 131 135 130 124 124 127 129 128 129 126 109 104 95 87 82 74 68 55 51 57 63 97 128 99 108 96 102 121 101 64 89 122
128 124 123 127 130 131 133 132 134 134 130 131 136 137 132 123 123 125 122 119 111 101 93 91 87 78 65 54 48 43 33 40 76 109 121 92 87 95 106 105 96 121 131
131 129 129 129 131 133 133 133 134 134 132 134 132 131 130 124 125 126 120 112 108 99 91 83 76 64 53 37 26 27 35 46 36 131 111 106 75 105 105 106 106 123 126
133 132 133 133 136 136 135 132 131 130 131 134 136 139 135 133 129 130 119 113 106 97 90 74 71 57 34 19 14 10 34 56 56 22 160 132 85 95 99 107 113 126 126
137 137 136 138 140 139 136 131 131 130 128 131 132 134 136 131 129 126 120 112 107 89 68 64 41 19 8 4 6 11 26 71 69 105 157 134 111 98 112 105 116 139 140
140 138 137 139 139 138 140 140 136 136 140 139 137 135 134 133 133 129 129 118 86 66 63 46 19 3 5 1 8 28 28 43 65 105 143 152 143 135 131 154 133 142 149
145 143 142 142 144 143 144 144 147 152 149 150 148 144 139 138 141 143 130 99 75 83 56 15 3 352 352 1 21 24 44 37 23 110 136 132 141 154 144 152 152 157 157
149 149 150 150 150 152 152 147 146 148 150 151 153 148 147 148 152 151 133 56 85 28 5 1 352 338 320 49 30 20 36 81 73 110 159 164 159 169 160 151 164 171 174
155 152 149 152 155 156 159 157 155 152 151 151 156 156 163 172 147 186 56 33 320 319 330 354 8 6 7 243 32 47 69 121 57 106 254 188 181 189 183 180 178 182 183
160 161 155 157 158 159 159 161 166 167 167 163 163 164 172 193 180 206 267 225 317 294 10 89 9 341 6 98 90 143 92 80 344 24 142 276 222 210 195 202 195 199 199
159 162 161 163 159 163 166 167 170 174 171 171 176 182 208 221 182 296 261 305 232 273 345 41 346 335 307 284 306 273 266 274 267 284 261 284 267 223 215 210 209 208 206
167 165 165 159 164 172 167 170 174 177 174 185 190 216 233 242 274 267 267 270 232 258 304 322 325 325 312 312 311 314 272 276 276 282 262 263 270 243 232 229 217 215 213
179 176 172 173 168 173 176 160 168 171 168 170 206 219 242 264 296 284 305 279 281 286 299 319 328 333 335 324 311 298 287 296 288 267 258 261 275 257 238 238 230 222 222
179 181 177 182 168 167 173 180 188 194 206 216 214 232 255 274 282 294 309 317 297 292 294 303 309 307 315 311 313 283 285 276 280 266 262 261 272 266 244 243 240 234 232
186 186 181 196 184 188 199 212 208 214 220 217 220 231 248 255 277 289 292 294 304 290 286 294 300 305 307 308 306 311 285 274 275 267 259 263 265 257 255 245 250 240 243
190 188 191 202 206 204 211 217 222 214 207 226 234 240 249 267 280 279 284 293 301 293 300 296 297 304 309 309 308 306 296 279 278 264 259 273 262 259 255 249 250 251 245
193 196 200 208 214 211 222 226 233 232 232 237 242 245 246 255 270 284 290 293 293 295 294 301 305 303 306 311 310 307 302 294 274 267 266 260 258 257 259 260 254 251 253
203 204 209 212 215 215 216 231 242 233 240 247 245 242 249 254 264 281 278 299 297 290 292 302 309 313 318 320 314 309 304 302 292 274 265 262 251 252 262 265 259 254 255
199 205 211 219 215 206 216 226 233 223 229 237 249 251 253 263 263 272 277 288 295 303 305 309 319 320 322 329 326 324 317 315 309 299 287 268 261 259 260 265 264 261 256
200 203 202 207 211 211 218 230 233 235 236 238 242 247 246 255 267 278 277 281 297 303 305 307 311 317 324 328 323 322 330 342 339 4 14 321 283 264 262 264 264 262 261
200 205 201 199 200 205 216 217 220 224 221 197 206 236 247 261 273 282 293 297 295 299 300 304 308 314 319 326 327 331 339 6 64 332 323 314 317 296 277 275 272 273 267
200 193 190 197 205 212 205 213 216 214 216 229 231 245 254 269 299 302 307 293 276 292 301 295 297 309 313 322 333 338 340 315 326 328 334 326 310 311 289 288 285 278 274
196 192 194 199 197 195 199 212 221 225 223 238 224 219 233 270 297 309 321 4 37 326 315 300 296 299 306 320 332 335 320 313 322 322 323 326 320 309 291 284 285 283 285
199 196 193 192 193 196 203 211 225 224 229 217 217 220 250 288 251 244 276 290 306 315 318 310 307 320 317 327 343 341 338 340 338 325 325 332 326 325 312 297 288 281 277
203 203 200 198 200 204 208 216 233 238 247 239 228 230 245 267 253 250 268 273 291 300 303 309 339 339 333 344 351 353 359 2 342 333 325 328 328 332 330 324 314 298 289